Wind_Speed
4 4 4 3 3 3 3 3 3 3 3 3 3 4 4 5 6 6 6 6 6 7 7 7 7 7 7 7 6 7 7 6 6 6 6 6 6 7 7 7 7 7 8
4 5 5 4 4 4 4 4 4 4 4 4 4 5 5 5 6 7 6 6 7 7 7 8 8 8 8 8 7 7 7 7 7 7 7 8 8 8 8 8 9 9 9
5 5 5 4 4 4 5 5 5 5 5 5 6 6 6 7 7 7 7 7 7 7 8 9 8 9 8 8 8 8 8 7 7 7 8 9 9 9 9 9 10 10 10
6 5 5 5 5 4 5 5 5 6 6 6 7 7 7 8 8 8 9 9 9 9 9 9 9 9 10 9 9 9 9 9 9 9 9 9 10 10 10 10 11 11 11
7 6 6 6 6 6 6 6 6 7 7 8 8 8 9 9 9 9 9 10 10 10 10 10 10 10 10 10 10 10 10 11 11 10 11 10 10 11 11 11 11 11 11
7 8 8 7 7 7 7 7 7 8 9 9 9 10 10 10 10 9 10 11 11 11 11 10 11 11 11 11 11 11 11 11 11 11 11 11 11 11 12 12 12 12 12
8 9 8 8 8 7 7 8 8 8 9 9 10 10 10 10 11 10 10 10 11 11 10 11 11 12 12 11 11 11 11 11 12 12 12 12 12 12 12 12 12 12 13
9 10 9 9 9 9 8 9 9 9 9 9 10 9 10 10 11 11 11 11 11 11 11 11 11 11 11 12 13 12 12 13 13 13 12 12 12 12 12 12 12 13 13
10 11 10 10 10 10 9 9 10 10 10 10 11 10 11 11 11 12 12 12 12 13 13 13 12 12 13 13 13 13 13 14 14 13 13 13 13 13 13 13 13 13 14
11 11 12 12 11 11 11 11 12 11 11 12 12 12 12 13 13 13 13 13 13 13 14 15 15 15 14 14 14 14 14 15 16 15 14 14 14 14 14 14 14 15 15
12 12 13 12 12 12 12 12 12 12 13 13 13 13 14 14 14 15 15 15 14 15 15 16 16 16 16 15 15 16 16 17 17 16 15 15 15 15 15 15 15 16 16
13 14 14 14 14 13 13 13 13 13 14 14 14 14 15 15 15 16 16 16 16 16 17 17 17 17 16 16 16 17 18 18 18 17 16 16 16 16 16 16 16 16 16
14 14 14 15 15 15 15 15 14 15 16 16 16 16 16 16 17 17 17 17 18 18 18 18 18 17 17 16 17 17 18 18 18 18 17 17 17 17 16 16 16 16 17
14 14 15 15 16 16 16 16 16 17 17 18 18 18 18 18 18 18 18 18 18 19 19 19 19 18 18 17 17 17 17 18 18 18 17 17 18 18 17 17 17 17 18
15 15 16 17 17 17 18 18 19 19 19 19 19 19 19 19 19 19 19 20 20 19 19 19 19 18 17 17 17 17 18 18 19 19 18 18 18 18 18 18 19 19 19
16 16 17 18 18 18 19 20 21 21 21 21 21 21 20 20 20 20 20 21 21 20 20 19 19 17 18 18 18 18 18 18 18 19 18 19 19 19 20 20 20 20 19
18 17 17 18 19 19 19 20 20 21 22 22 22 22 21 22 22 22 21 21 21 21 20 20 20 19 18 19 19 19 19 19 19 19 19 19 19 19 19 19 19 19 19
18 18 18 19 19 19 20 20 20 21 22 22 22 22 22 23 23 23 22 22 22 21 21 20 20 20 20 20 20 21 21 20 20 20 20 21 21 21 21 21 20 20 20
19 19 20 20 20 21 21 21 22 22 22 23 23 23 22 23 23 23 23 23 23 22 22 21 21 21 21 22 22 22 22 22 22 22 22 23 23 23 22 22 21 21 21
21 21 21 21 22 22 23 23 23 24 24 24 24 24 23 24 24 24 23 23 22 22 22 22 22 22 23 23 23 23 23 23 23 23 22 23 23 23 23 22 22 22 22
22 22 22 23 23 23 24 24 25 25 25 25 25 24 24 24 24 24 23 23 23 23 23 23 23 23 24 24 24 25 25 24 24 24 24 24 24 23 22 23 23 23 23
23 23 24 24 24 24 24 25 26 26 26 26 25 24 23 23 23 23 23 23 24 24 23 23 24 24 24 25 25 25 25 25 25 25 25 24 24 23 23 23 23 23 23
24 24 24 25 25 25 25 26 26 26 26 25 25 24 23 23 23 24 24 24 24 24 24 25 25 25 25 25 26 26 26 26 25 25 26 25 24 24 23 23 23 24 24
26 25 25 25 25 25 26 26 26 27 26 25 24 24 24 23 23 24 24 24 25 25 25 25 25 25 25 25 26 26 26 26 26 26 26 26 24 24 24 24 24 23 24
26 26 25 25 26 26 27 27 27 26 26 26 25 24 25 25 25 25 25 26 26 26 26 25 26 26 27 26 26 26 26 26 26 26 26 26 25 25 25 25 25 25 25
26 26 26 26 26 27 27 27 26 26 26 26 26 26 26 26 26 26 26 26 26 26 26 26 27 27 27 27 26 26 26 27 26 25 25 25 25 25 25 25 25 25 25
Wind_Direction
318 310 300 296 301 311 312 300 289 286 286 293 294 301 302 300 296 312 308 291 290 292 293 295 294 293 297 298 298 293 291 289 284 285 283 281 280 281 284 278 276 278 278
316 312 304 297 296 301 300 295 292 287 282 288 296 303 305 298 302 307 308 303 297 292 289 288 290 291 293 292 294 292 289 286 289 291 288 284 278 278 284 282 279 279 278
318 315 309 305 304 304 298 298 293 291 284 284 291 295 296 297 301 300 292 299 298 296 292 287 289 293 297 299 298 299 302 297 291 293 290 284 279 277 280 280 279 276 274
313 313 305 304 304 303 304 303 297 292 286 285 287 291 294 296 297 298 296 292 293 296 298 296 291 295 297 296 297 301 304 301 296 293 292 288 283 280 277 278 278 275 269
314 312 302 296 299 299 299 299 300 295 288 288 289 289 290 292 292 294 291 293 293 290 291 294 292 290 291 292 294 297 298 300 298 294 289 286 285 282 277 275 273 273 270
310 310 307 299 298 298 298 297 296 296 294 292 291 290 290 292 290 288 290 295 295 290 288 289 292 297 292 294 293 293 293 294 295 294 291 288 285 282 276 274 274 273 269
305 304 303 302 299 297 298 297 296 298 303 301 295 294 293 292 290 287 287 290 290 295 291 290 286 298 291 296 296 294 293 293 293 293 291 291 288 284 281 277 273 271 270
299 296 295 299 299 297 296 296 298 298 302 303 302 300 300 299 297 294 293 292 291 292 292 291 292 295 293 296 296 294 292 292 291 290 291 290 287 283 282 279 275 272 270
296 294 292 293 294 294 294 295 296 295 298 299 302 303 299 300 298 296 295 292 291 291 290 290 292 292 291 295 298 295 293 290 290 289 289 288 285 283 285 280 276 275 274
295 293 291 291 290 290 289 289 293 294 295 297 298 298 298 297 297 299 297 295 291 290 290 289 292 291 290 290 293 294 293 291 290 290 287 285 285 284 281 278 275 274 275
291 291 289 286 287 289 289 289 290 291 293 294 296 297 296 296 294 295 296 296 294 292 291 290 292 293 292 290 291 293 293 291 289 289 288 287 283 281 279 275 274 276 277
288 286 287 285 283 286 288 287 288 291 292 293 295 296 296 296 294 294 294 293 292 293 292 292 294 293 291 291 289 290 292 291 288 289 286 284 284 280 276 275 274 274 275
287 287 285 286 285 285 286 287 288 291 292 294 294 294 294 294 294 294 294 293 292 292 292 293 295 293 291 291 291 291 291 289 287 287 286 285 285 282 278 277 276 274 272
287 287 286 285 283 283 285 286 286 288 290 291 294 294 294 291 292 292 293 293 293 292 291 292 292 293 292 292 295 294 290 289 287 285 286 286 284 283 282 279 276 274 272
289 285 284 285 284 284 284 284 286 289 288 289 291 293 293 290 289 292 291 290 292 293 292 293 291 291 290 291 295 293 291 288 285 284 284 283 282 282 281 278 275 273 273
291 288 284 285 284 284 284 285 287 288 288 289 288 289 290 289 290 292 291 289 291 292 293 292 289 291 292 292 292 295 291 287 286 284 283 283 283 280 278 276 274 273 272
292 291 290 287 285 284 284 286 287 288 288 288 287 287 288 288 288 290 290 289 289 291 291 289 289 290 290 292 290 289 291 289 286 286 283 281 281 279 276 274 275 275 276
291 290 289 289 289 288 287 287 290 289 289 288 287 287 286 287 287 287 290 290 289 289 289 288 288 288 289 291 292 289 288 289 287 283 282 282 280 280 278 277 277 277 277
292 291 289 289 289 288 289 289 290 290 289 288 287 287 287 287 287 286 287 288 289 288 287 286 285 286 288 290 291 291 289 288 287 285 282 282 281 281 279 278 276 275 275
290 289 289 290 289 288 289 289 289 290 289 289 288 286 286 287 286 285 285 286 287 287 286 285 284 285 286 289 291 292 290 288 286 286 284 282 282 280 277 276 275 273 272
290 290 289 290 291 290 289 289 289 289 288 288 289 287 287 287 286 285 285 285 286 286 285 285 285 286 287 288 290 290 290 288 285 284 284 283 283 281 277 276 274 273 271
290 290 290 291 291 291 291 291 290 289 289 289 289 288 286 285 285 285 284 284 285 286 285 285 286 287 288 288 289 289 289 289 287 284 284 284 282 279 279 278 273 271 271
289 290 290 291 293 293 292 291 291 290 289 288 287 287 287 285 285 285 284 283 284 284 285 285 286 287 288 288 289 290 291 292 290 287 284 282 280 278 276 275 275 273 271
289 289 291 291 293 293 291 289 291 290 289 288 287 286 289 285 286 287 285 284 284 284 285 286 286 286 287 288 289 290 290 290 289 288 284 281 278 275 274 272 272 271 274
288 288 289 290 292 294 293 290 289 290 288 286 285 285 286 285 285 285 284 282 282 283 285 286 286 286 286 287 287 287 287 289 290 288 284 281 277 275 273 272 272 272 274
285 286 287 289 290 291 293 292 289 289 287 284 283 284 284 283 283 283 284 283 282 283 286 287 286 286 286 286 285 285 287 288 288 287 285 282 279 275 273 273 273 272 273
Height
5888 5888 5888 5888 5888 5888 5888 5889 5889 5889 5890 5889 5889 5889 5889 5889 5889 5889 5889 5889 5889 5889 5889 5889 5889 5889 5889 5889 5888 5888 5887 5886 5886 5886 5886 5886 5886 5886 5886 5886 5886 5886 5886
5888 5888 5888 5888 5888 5888 5888 5888 5888 5889 5889 5889 5889 5889 5889 5888 5888 5888 5888 5888 5888 5888 5888 5888 5888 5888 5888 5887 5887 5886 5886 5885 5884 5884 5884 5884 5884 5884 5884 5884 5884 5884 5884
5888 5888 5888 5888 5888 5888 5888 5888 5888 5888 5888 5888 5888 5888 5887 5887 5887 5886 5886 5886 5886 5886 5886 5886 5886 5886 5886 5885 5885 5884 5884 5883 5883 5883 5882 5882 5882 5882 5882 5882 5882 5882 5882
5887 5887 5887 5887 5887 5887 5888 5887 5887 5887 5887 5887 5887 5887 5886 5886 5886 5885 5884 5885 5885 5885 5884 5884 5884 5884 5884 5883 5883 5882 5882 5882 5881 5881 5880 5880 5880 5880 5879 5879 5879 5879 5879
5887 5887 5887 5887 5887 5887 5887 5887 5887 5886 5886 5886 5886 5885 5885 5884 5884 5884 5883 5883 5883 5882 5882 5882 5882 5882 5881 5881 5881 5880 5880 5879 5879 5878 5878 5877 5877 5877 5877 5876 5876 5876 5876
5886 5886 5886 5886 5886 5886 5886 5885 5885 5885 5884 5884 5884 5884 5883 5882 5882 5882 5881 5881 5880 5880 5880 5879 5879 5879 5879 5878 5878 5878 5877 5877 5876 5876 5875 5874 5874 5874 5874 5873 5873 5873 5873
5885 5885 5885 5884 5884 5884 5884 5884 5883 5883 5883 5882 5882 5881 5881 5881 5880 5879 5879 5879 5878 5877 5877 5876 5876 5876 5876 5876 5875 5875 5874 5874 5874 5873 5872 5872 5871 5871 5870 5870 5870 5870 5870
5883 5883 5883 5883 5883 5882 5882 5882 5882 5881 5881 5880 5879 5878 5879 5879 5878 5877 5877 5876 5875 5875 5874 5874 5874 5874 5873 5873 5872 5871 5871 5871 5871 5870 5869 5869 5868 5868 5867 5867 5867 5867 5867
5881 5881 5881 5881 5880 5880 5880 5880 5880 5879 5879 5878 5877 5877 5877 5877 5876 5875 5875 5874 5873 5873 5872 5871 5871 5871 5871 5870 5869 5869 5868 5868 5867 5867 5866 5865 5865 5864 5864 5864 5863 5863 5863
5879 5879 5879 5879 5878 5878 5878 5878 5877 5877 5877 5876 5876 5875 5874 5874 5873 5873 5872 5871 5871 5870 5870 5869 5868 5868 5867 5867 5866 5865 5865 5864 5864 5863 5862 5862 5861 5861 5860 5860 5860 5860 5859
5877 5876 5876 5876 5875 5875 5875 5875 5875 5874 5874 5873 5873 5872 5871 5871 5870 5870 5869 5868 5868 5867 5866 5866 5865 5864 5863 5863 5862 5861 5861 5860 5860 5859 5858 5857 5857 5857 5856 5856 5856 5855 5855
5874 5874 5873 5872 5872 5872 5872 5872 5871 5871 5870 5870 5869 5869 5868 5867 5866 5866 5865 5865 5864 5863 5862 5862 5861 5860 5859 5858 5858 5857 5856 5856 5855 5854 5853 5853 5852 5852 5852 5851 5851 5851 5851
5871 5870 5870 5869 5869 5868 5868 5868 5868 5867 5867 5866 5866 5865 5864 5863 5863 5862 5861 5860 5860 5859 5858 5857 5857 5856 5855 5854 5853 5852 5851 5851 5850 5850 5849 5848 5848 5847 5847 5846 5846 5846 5846
5867 5867 5866 5866 5865 5864 5864 5864 5864 5863 5863 5862 5861 5861 5860 5859 5859 5858 5857 5856 5855 5854 5854 5853 5852 5851 5850 5850 5849 5847 5846 5846 5845 5845 5844 5844 5843 5843 5842 5841 5841 5841 5841
5863 5863 5862 5862 5861 5860 5860 5859 5859 5858 5858 5857 5857 5856 5855 5855 5854 5853 5852 5851 5851 5850 5849 5848 5847 5846 5846 5845 5844 5843 5842 5841 5840 5840 5839 5838 5838 5837 5837 5836 5836 5835 5835
5859 5858 5858 5857 5857 5856 5855 5854 5854 5853 5853 5852 5852 5851 5850 5850 5849 5848 5847 5846 5845 5844 5844 5843 5842 5842 5841 5840 5839 5838 5837 5836 5835 5834 5834 5833 5832 5832 5831 5831 5830 5830 5830
5855 5854 5853 5853 5852 5851 5850 5849 5849 5848 5847 5847 5846 5845 5845 5844 5843 5842 5841 5840 5839 5839 5838 5837 5837 5836 5835 5835 5834 5832 5831 5830 5830 5829 5828 5827 5826 5826 5825 5825 5824 5824 5824
5850 5849 5849 5848 5846 5846 5845 5844 5843 5842 5841 5841 5840 5839 5838 5838 5837 5836 5835 5834 5833 5833 5832 5832 5831 5830 5830 5829 5828 5827 5825 5825 5824 5823 5822 5821 5821 5820 5820 5819 5819 5819 5819
5845 5844 5843 5842 5841 5840 5839 5838 5837 5836 5835 5834 5834 5832 5832 5831 5831 5830 5829 5828 5828 5827 5826 5826 5825 5825 5824 5823 5822 5821 5820 5819 5818 5816 5816 5815 5814 5814 5813 5813 5813 5813 5813
5839 5838 5837 5836 5835 5834 5833 5832 5831 5830 5829 5828 5827 5826 5826 5825 5824 5823 5823 5822 5821 5821 5820 5819 5819 5818 5818 5817 5816 5815 5814 5812 5811 5810 5809 5808 5808 5807 5807 5807 5807 5807 5807
5833 5832 5831 5830 5829 5828 5827 5826 5825 5823 5822 5821 5820 5820 5819 5818 5818 5817 5816 5816 5815 5814 5813 5813 5812 5812 5811 5810 5809 5808 5807 5805 5804 5803 5802 5801 5801 5800 5800 5800 5800 5800 5800
5827 5826 5825 5823 5822 5821 5820 5819 5818 5816 5815 5814 5814 5813 5812 5812 5811 5810 5810 5809 5809 5808 5807 5806 5806 5805 5804 5803 5801 5800 5799 5798 5797 5797 5795 5794 5793 5793 5793 5793 5793 5793 5793
5821 5819 5818 5817 5815 5814 5813 5811 5810 5809 5808 5807 5806 5806 5805 5805 5804 5804 5803 5802 5802 5801 5800 5800 5799 5798 5797 5796 5794 5793 5791 5790 5789 5788 5787 5787 5786 5786 5786 5786 5786 5786 5786
5814 5812 5811 5810 5808 5807 5805 5804 5803 5801 5800 5799 5799 5799 5798 5797 5797 5797 5796 5795 5795 5794 5793 5793 5792 5791 5790 5788 5787 5786 5784 5783 5782 5781 5779 5779 5779 5778 5778 5779 5779 5779 5779
5806 5805 5804 5803 5801 5800 5798 5796 5795 5794 5793 5792 5792 5792 5791 5790 5790 5789 5789 5788 5788 5787 5786 5785 5784 5783 5782 5781 5779 5778 5777 5776 5775 5773 5772 5771 5771 5771 5771 5771 5771 5771 5771
5799 5798 5797 5796 5794 5792 5790 5789 5787 5786 5785 5785 5785 5784 5784 5783 5783 5782 5781 5780 5780 5780 5778 5777 5777 5775 5774 5773 5772 5770 5769 5768 5766 5766 5765 5764 5763 5763 5763 5763 5763 5763 5763